Location: Asheville, NC
(35.6000°N, 82.5500°W)
Time: 15:54:26
(UTC-05:00)

Vanguard 1 - Pass Details

Date: 10 December 2017
Orbit: 649 x 3834 km, 34.3° (Epoch: 19 January)

Event Time Altitude Azimuth Distance (km) Brightness Sun altitude
Rises 06:48:38 0° 197° (SSW) 7,822 14.7 -8.3°
Reaches altitude 10° 06:55:47 10° 185° (S) 6,921 14.6 -6.9°
Maximum altitude 07:12:07 25° 140° (SE) 5,436 14.8 -3.9°
Drops below altitude 10° 07:25:31 10° 94° (E) 5,731 15.4 -1.5°
Sets 07:30:26 0° 82° (E) 6,292 15.2 -0.6°
